UAL202 KLAX-KSAN

Flight info

Callsign UAL202
Flight time N/A
Altitude 13000
Route LAXX1 MZB DCT
Aircraft B739/M-SDE2E3FGHIRWXY/LB1

Departure

Time 2026-05-07 04:55
Airport Los Angeles International Airport (KLAX)

Arrival

Time N/A
Airport San Diego International Airport (KSAN)
Time Latitude Longitude Altitude Speed Heading
2026-05-07 04:26 33.94108 -118.39896 92 ft 0 kts 307°
2026-05-07 04:44 33.94102 -118.39886 92 ft 4 kts 309°
2026-05-07 04:44 33.94084 -118.39863 96 ft 4 kts 307°
2026-05-07 04:44 33.94074 -118.39841 93 ft 4 kts 290°
2026-05-07 04:45 33.94064 -118.39811 94 ft 4 kts 290°
2026-05-07 04:45 33.94059 -118.39789 92 ft 0 kts 269°
2026-05-07 04:47 33.94060 -118.39809 93 ft 0 kts 256°
2026-05-07 04:47 33.94049 -118.39818 92 ft 0 kts 203°
2026-05-07 04:48 33.94042 -118.39820 92 ft 5 kts 189°
2026-05-07 04:49 33.94019 -118.39821 93 ft 7 kts 177°
2026-05-07 04:49 33.93958 -118.39809 95 ft 9 kts 167°
2026-05-07 04:49 33.93912 -118.39764 95 ft 11 kts 112°
2026-05-07 04:49 33.93915 -118.39646 95 ft 15 kts 80°
2026-05-07 04:50 33.93930 -118.39521 94 ft 15 kts 83°
2026-05-07 04:50 33.93940 -118.39397 95 ft 16 kts 83°
2026-05-07 04:50 33.93955 -118.39257 94 ft 17 kts 84°
2026-05-07 04:50 33.93969 -118.39109 94 ft 18 kts 83°
2026-05-07 04:51 33.93986 -118.38950 94 ft 19 kts 83°
2026-05-07 04:51 33.94002 -118.38791 95 ft 19 kts 83°
2026-05-07 04:51 33.94018 -118.38638 94 ft 18 kts 83°
2026-05-07 04:51 33.94033 -118.38485 95 ft 19 kts 83°
2026-05-07 04:52 33.94049 -118.38324 95 ft 19 kts 83°
2026-05-07 04:52 33.94066 -118.38165 93 ft 20 kts 83°
2026-05-07 04:52 33.94076 -118.38046 92 ft 0 kts 95°
2026-05-07 04:53 33.94076 -118.38045 92 ft 1 kts 96°
2026-05-07 04:54 33.94035 -118.38002 93 ft 13 kts 165°
2026-05-07 04:54 33.93978 -118.38078 93 ft 26 kts 262°
2026-05-07 04:54 33.93918 -118.38669 96 ft 115 kts 263°
2026-05-07 04:54 33.93814 -118.39907 215 ft 175 kts 264°
2026-05-07 04:55 33.93662 -118.41416 1136 ft 182 kts 262°
2026-05-07 04:55 33.93486 -118.42985 1927 ft 202 kts 263°
2026-05-07 04:55 33.93268 -118.44760 2337 ft 231 kts 255°
2026-05-07 04:55 33.92498 -118.46527 2853 ft 246 kts 235°
2026-05-07 04:56 33.91457 -118.48253 3512 ft 260 kts 233°
2026-05-07 04:56 33.90324 -118.50001 4337 ft 267 kts 232°
2026-05-07 04:56 33.88948 -118.51523 5196 ft 275 kts 210°
2026-05-07 04:56 33.87115 -118.52284 6037 ft 283 kts 194°
2026-05-07 04:57 33.85154 -118.52778 6806 ft 291 kts 192°
2026-05-07 04:57 33.83149 -118.53259 7628 ft 295 kts 191°
2026-05-07 04:57 33.81126 -118.53762 8482 ft 299 kts 191°
2026-05-07 04:57 33.79080 -118.54302 9336 ft 303 kts 191°
2026-05-07 04:58 33.77013 -118.54881 10164 ft 308 kts 191°
2026-05-07 04:58 33.74883 -118.55496 10686 ft 322 kts 191°
2026-05-07 04:58 33.72641 -118.56146 10983 ft 344 kts 191°
2026-05-07 04:58 33.70213 -118.56844 11001 ft 372 kts 191°
2026-05-07 04:59 33.67627 -118.57579 11007 ft 393 kts 191°
2026-05-07 04:59 33.64945 -118.58339 10997 ft 397 kts 191°
2026-05-07 04:59 33.62256 -118.59101 10989 ft 397 kts 191°
2026-05-07 04:59 33.59593 -118.59592 10978 ft 392 kts 176°
2026-05-07 05:00 33.56987 -118.58860 11004 ft 382 kts 150°
2026-05-07 05:00 33.54932 -118.56948 11013 ft 373 kts 126°
2026-05-07 05:00 33.53776 -118.54238 11020 ft 364 kts 101°
2026-05-07 05:00 33.53260 -118.51287 11015 ft 366 kts 104°
2026-05-07 05:01 33.52241 -118.48460 11026 ft 369 kts 114°
2026-05-07 05:01 33.51064 -118.45733 11022 ft 366 kts 114°
2026-05-07 05:01 33.49909 -118.43072 11015 ft 366 kts 114°
2026-05-07 05:01 33.48731 -118.40369 11023 ft 366 kts 114°
2026-05-07 05:02 33.47539 -118.37639 11031 ft 371 kts 114°
2026-05-07 05:02 33.46335 -118.34886 11036 ft 374 kts 114°
2026-05-07 05:02 33.45124 -118.32125 11024 ft 373 kts 114°
2026-05-07 05:02 33.43922 -118.29392 11019 ft 373 kts 114°
2026-05-07 05:03 33.42738 -118.26634 11014 ft 371 kts 112°
2026-05-07 05:03 33.41642 -118.23845 11015 ft 370 kts 111°
2026-05-07 05:03 33.40563 -118.21046 11015 ft 370 kts 111°
2026-05-07 05:03 33.39471 -118.18253 11012 ft 373 kts 112°
2026-05-07 05:04 33.38331 -118.15386 11021 ft 387 kts 112°
2026-05-07 05:04 33.37149 -118.12467 11013 ft 392 kts 113°
2026-05-07 05:04 33.35949 -118.09547 10991 ft 390 kts 113°
2026-05-07 05:04 33.34743 -118.06637 10989 ft 390 kts 113°
2026-05-07 05:05 33.33533 -118.03731 10982 ft 389 kts 113°
2026-05-07 05:05 33.32327 -118.00839 10984 ft 389 kts 113°
2026-05-07 05:05 33.31115 -117.97939 10985 ft 389 kts 113°
2026-05-07 05:05 33.29933 -117.95110 10988 ft 390 kts 113°
2026-05-07 05:06 33.28710 -117.92171 10989 ft 390 kts 113°
2026-05-07 05:06 33.27497 -117.89274 10991 ft 390 kts 114°
2026-05-07 05:06 33.26295 -117.86410 10990 ft 390 kts 114°
2026-05-07 05:06 33.25076 -117.83509 10989 ft 391 kts 114°
2026-05-07 05:07 33.23856 -117.80603 10986 ft 391 kts 114°
2026-05-07 05:07 33.22638 -117.77703 10988 ft 391 kts 114°
2026-05-07 05:07 33.21417 -117.74799 10992 ft 391 kts 114°
2026-05-07 05:07 33.20195 -117.71891 10991 ft 391 kts 114°
2026-05-07 05:08 33.18973 -117.68990 10992 ft 391 kts 114°
2026-05-07 05:08 33.17754 -117.66095 10990 ft 390 kts 114°
2026-05-07 05:08 33.16534 -117.63200 10993 ft 390 kts 114°
2026-05-07 05:08 33.15313 -117.60308 10993 ft 390 kts 114°
2026-05-07 05:09 33.14107 -117.57452 10919 ft 391 kts 114°
2026-05-07 05:09 33.12882 -117.54553 10662 ft 387 kts 114°
2026-05-07 05:09 33.11674 -117.51699 10352 ft 386 kts 114°
2026-05-07 05:09 33.10458 -117.48822 10010 ft 391 kts 114°
2026-05-07 05:10 33.09238 -117.45941 9632 ft 388 kts 114°
2026-05-07 05:10 33.08027 -117.43085 9247 ft 385 kts 114°
2026-05-07 05:10 33.07230 -117.41205 8998 ft 383 kts 114°